Regional Weather Roundup
Issued by NWS Bismarck, ND

Home | Current Version | Previous Version | Text Only | Print | Product List | Glossary On
Versions: 1 2 3 4 5 6 7 8 9 10 11 12 13 14 15 16 17 18 19 20 21 22 23 24 25 26 27 28 29 30 31 32 33 34 35 36 37 38 39 40 41 42 43 44 45 46 47 48 49 50
000
ASUS43 KBIS 120610
RWRBIS

NWR BROADCAST TEXT
NATIONAL WEATHER SERVICE BISMARCK ND
1200 AM CST FRI FEB 12 2016

NOTE: "FAIR" INDICATES FEW OR NO CLOUDS BELOW 12,000 FEET WITH NO
SIGNIFICANT WEATHER AND/OR OBSTRUCTIONS TO VISIBILITY.


CITY           SKY/WX    TMP DP  RH WIND       PRES   REMARKS
WILLISTON      CLOUDY    20  15  81 N7        30.34R WCI  11
MINOT          CLOUDY    17   7  64 NW10      30.32R WCI   5
MINOT AFB      MOCLDY    12   6  77 N13       30.33R WCI  -2
BISMARCK       CLOUDY    20  12  71 N6        30.31R WCI  12
DICKINSON      CLOUDY    21  17  84 N7        30.24R WCI  12
GARRISON         N/A     16  13  88 NW6       30.29R WCI   7
HETTINGER ARPT CLOUDY    24  21  88 N5        30.25R FOG     WCI  18
JAMESTOWN      CLOUDY     9   5  84 NW7       30.28R WCI  -2
BEACH          CLOUDY    21  21 100 N8        30.30R WCI  12
CARRINGTON     FLURRIES  10  10 100 NW8       30.32R WCI  -1
HAZEN          CLOUDY    16  12  86 CALM      30.33R
LINTON         CLOUDY    18  16  93 N8        30.31S WCI   7
MANDAN         CLOUDY    16  14  93 NW6       30.30R WCI   7
OAKES          FAIR       7   7 100 NW6       30.29R WCI  -3
RUGBY          FAIR       5   1  85 N7        30.32R WCI  -7
STANLEY        CLOUDY    14  14 100 N6        30.32R WCI   5
TIOGA          FLURRIES  16  16 100 N9        30.35R WCI   4
WATFORD CITY   FLURRIES  19  16  86 N6        30.32S WCI  11
$$

CITY           SKY/WX    TMP DP  RH WIND       PRES   REMARKS
GRAND FORKS    CLEAR      8   0  69 N14       30.32R WCI  -8
GRAND FORKS AF CLEAR      8   0  70 N10       30.32R WCI  -6
DEVILS LAKE    CLOUDY     1  -2  87 NW9       30.31R WCI -14
FARGO          CLOUDY    13   6  74 N13       30.30R WCI  -2
CAVALIER       FAIR       7   0  72 N14       30.34R WCI -10
GRAFTON        FAIR       7  -2  66 N15       30.36R WCI -11
GWINNER        FAIR       9   5  85 NW9       30.28S WCI  -5
LANGDON        FAIR      -6 -11  77 N8        30.28R WCI -21
ROLLA          FAIR       3   0  85 NW17      30.30R WCI -17
WALHALLA       FAIR       5   0  78 NW12      30.35R WCI -11
$$

CITY           SKY/WX    TMP DP  RH WIND       PRES   REMARKS
ABERDEEN       CLOUDY    12   8  84 N6        30.30R WCI   3
MOBRIDGE       CLOUDY    21  16  81 N7        30.26S WCI  12
BUFFALO          N/A     29  24  82 N8        30.17R
RAPID CITY     CLOUDY    31  28  89 CALM      30.24S
GLASGOW        CLOUDY    29  23  78 N6        30.31R
SIDNEY         CLOUDY    23  18  80 NE7       30.33R WCI  15
WOLF POINT     CLOUDY    26  18  71 E9        30.35R WCI  17
GLENDIVE       CLOUDY    25  21  86 NE8       30.32R WCI  16
MILES CITY     CLOUDY    31  26  82 CALM      30.28R
BAKER          CLOUDY    27  21  78 NW8       30.26R WCI  19
$$

CITY           SKY/WX    TMP DP  RH WIND       PRES   REMARKS
BILLINGS       CLOUDY    44  27  51 CALM      30.26R
GREAT FALLS    CLOUDY    34  29  82 E6        30.25F
REGINA         PTCLDY     7   0  72 N10       30.43R WCI  -8
ESTEVAN        MOCLDY    10   5  79 N15       30.36R WCI  -6
$$




USA.gov is the U.S. government's official web portal to all federal, state and local government web resources and services.